owner,sensor,date,latitude,longitude,vertical_datum,wind_speed,wind_to_direction,wind_speed_of_gust,qcFlag 
FIT,ioos:station:wmo:SIPF1:1,2013-12-01T00:00:00Z,27.8620,-80.4450,1.0,8.4,47.0,99.0,'11111222,11111222,11144222' 
FIT,ioos:station:wmo:SIPF1:1,2013-12-01T00:30:00Z,27.8620,-80.4450,1.0,7.9,48.0,99.0,'11111222,11111222,11144222' 
FIT,ioos:station:wmo:SIPF1:1,2013-12-01T00:45:00Z,27.8620,-80.4450,1.0,8.1,51.0,99.0,'11111222,11111222,11144222' 
FIT,ioos:station:wmo:SIPF1:1,2013-12-01T01:00:00Z,27.8620,-80.4450,1.0,7.9,53.0,99.0,'11111222,11111222,11144222' 
FIT,ioos:station:wmo:SIPF1:1,2013-12-01T01:15:00Z,27.8620,-80.4450,1.0,7.8,52.0,99.0,'11111222,11111222,11144222' 
FIT,ioos:station:wmo:SIPF1:1,2013-12-01T01:30:00Z,27.8620,-80.4450,1.0,8.3,55.0,99.0,'11111222,11111222,11144222' 
FIT,ioos:station:wmo:SIPF1:1,2013-12-01T01:45:00Z,27.8620,-80.4450,1.0,8.5,55.0,99.0,'11111222,11111222,11144222' 
FIT,ioos:station:wmo:SIPF1:1,2013-12-01T02:00:00Z,27.8620,-80.4450,1.0,8.5,48.0,99.0,'11111222,11111222,11144222' 
FIT,ioos:station:wmo:SIPF1:1,2013-12-01T02:15:00Z,27.8620,-80.4450,1.0,8.3,69.0,99.0,'11111222,11111222,11144222' 
FIT,ioos:station:wmo:SIPF1:1,2013-12-01T02:30:00Z,27.8620,-80.4450,1.0,8.3,63.0,99.0,'11111222,11111222,11144222' 
FIT,ioos:station:wmo:SIPF1:1,2013-12-01T02:45:00Z,27.8620,-80.4450,1.0,8.3,60.0,99.0,'11111222,11111222,11144222' 
FIT,ioos:station:wmo:SIPF1:1,2013-12-01T03:00:00Z,27.8620,-80.4450,1.0,7.7,62.0,99.0,'11111222,11111222,11144222' 
FIT,ioos:station:wmo:SIPF1:1,2013-12-01T03:15:00Z,27.8620,-80.4450,1.0,7.7,58.0,99.0,'11111222,11111222,11144222' 
FIT,ioos:station:wmo:SIPF1:1,2013-12-01T03:30:00Z,27.8620,-80.4450,1.0,9.3,65.0,99.0,'11111222,11111222,11144222' 
FIT,ioos:station:wmo:SIPF1:1,2013-12-01T03:45:00Z,27.8620,-80.4450,1.0,8.7,64.0,99.0,'11111222,11111222,11144222' 
FIT,ioos:station:wmo:SIPF1:1,2013-12-01T04:00:00Z,27.8620,-80.4450,1.0,7.2,69.0,99.0,'11111222,11111222,11144222' 
FIT,ioos:station:wmo:SIPF1:1,2013-12-01T04:15:00Z,27.8620,-80.4450,1.0,7.4,72.0,99.0,'11111222,11111222,11144222' 
FIT,ioos:station:wmo:SIPF1:1,2013-12-01T04:30:00Z,27.8620,-80.4450,1.0,8.6,69.0,99.0,'11111222,11111222,11144222' 
FIT,ioos:station:wmo:SIPF1:1,2013-12-01T04:45:00Z,27.8620,-80.4450,1.0,8.1,76.0,99.0,'11111222,11111222,11144222' 
FIT,ioos:station:wmo:SIPF1:1,2013-12-01T05:00:00Z,27.8620,-80.4450,1.0,7.5,84.0,99.0,'11111222,11111222,11144222' 
FIT,ioos:station:wmo:SIPF1:1,2013-12-01T05:15:00Z,27.8620,-80.4450,1.0,3.2,73.0,99.0,'11111222,11111222,11144222' 
FIT,ioos:station:wmo:SIPF1:1,2013-12-01T05:30:00Z,27.8620,-80.4450,1.0,2.1,35.0,99.0,'11111222,11111222,11144222' 
FIT,ioos:station:wmo:SIPF1:1,2013-12-01T05:45:00Z,27.8620,-80.4450,1.0,3.6,47.0,99.0,'11111222,11111222,11144222' 
FIT,ioos:station:wmo:SIPF1:1,2013-12-01T06:00:00Z,27.8620,-80.4450,1.0,3.6,33.0,99.0,'11111222,11111222,11144222' 
FIT,ioos:station:wmo:SIPF1:1,2013-12-01T06:15:00Z,27.8620,-80.4450,1.0,2.8,19.0,99.0,'11111222,11111222,11144222' 
FIT,ioos:station:wmo:SIPF1:1,2013-12-01T06:30:00Z,27.8620,-80.4450,1.0,3.8,51.0,99.0,'11111222,11111222,11144222' 
FIT,ioos:station:wmo:SIPF1:1,2013-12-01T06:45:00Z,27.8620,-80.4450,1.0,6.3,84.0,99.0,'11111222,11111222,11144222' 
FIT,ioos:station:wmo:SIPF1:1,2013-12-01T07:00:00Z,27.8620,-80.4450,1.0,8.8,90.0,99.0,'11111222,11111222,11144222' 
FIT,ioos:station:wmo:SIPF1:1,2013-12-01T07:15:00Z,27.8620,-80.4450,1.0,6.9,82.0,99.0,'11111222,11111222,11144222' 
FIT,ioos:station:wmo:SIPF1:1,2013-12-01T07:30:00Z,27.8620,-80.4450,1.0,5.4,92.0,99.0,'11111222,11111222,11144222' 
FIT,ioos:station:wmo:SIPF1:1,2013-12-01T07:45:00Z,27.8620,-80.4450,1.0,7.0,94.0,99.0,'11111222,11111222,11144222' 
FIT,ioos:station:wmo:SIPF1:1,2013-12-01T08:00:00Z,27.8620,-80.4450,1.0,5.9,92.0,99.0,'11111222,11111222,11144222' 
FIT,ioos:station:wmo:SIPF1:1,2013-12-01T08:15:00Z,27.8620,-80.4450,1.0,7.2,88.0,99.0,'11111222,11111222,11144222' 
FIT,ioos:station:wmo:SIPF1:1,2013-12-01T08:30:00Z,27.8620,-80.4450,1.0,8.5,103.0,99.0,'11111222,11111222,11144222' 
FIT,ioos:station:wmo:SIPF1:1,2013-12-01T08:45:00Z,27.8620,-80.4450,1.0,5.3,84.0,99.0,'11111222,11111222,11144222' 
FIT,ioos:station:wmo:SIPF1:1,2013-12-01T09:00:00Z,27.8620,-80.4450,1.0,4.8,78.0,99.0,'11111222,11111222,11144222' 
FIT,ioos:station:wmo:SIPF1:1,2013-12-01T09:15:00Z,27.8620,-80.4450,1.0,5.5,83.0,99.0,'11111222,11111222,11144222' 
FIT,ioos:station:wmo:SIPF1:1,2013-12-01T09:30:00Z,27.8620,-80.4450,1.0,7.5,92.0,99.0,'11111222,11111222,11144222' 
FIT,ioos:station:wmo:SIPF1:1,2013-12-01T09:45:00Z,27.8620,-80.4450,1.0,5.3,79.0,99.0,'11111222,11111222,11144222' 
FIT,ioos:station:wmo:SIPF1:1,2013-12-01T10:00:00Z,27.8620,-80.4450,1.0,4.2,66.0,99.0,'11111222,11111222,11144222' 
FIT,ioos:station:wmo:SIPF1:1,2013-12-01T10:15:00Z,27.8620,-80.4450,1.0,4.2,67.0,99.0,'11111222,11111222,11144222' 
FIT,ioos:station:wmo:SIPF1:1,2013-12-01T10:30:00Z,27.8620,-80.4450,1.0,6.7,92.0,99.0,'11111222,11111222,11144222' 
FIT,ioos:station:wmo:SIPF1:1,2013-12-01T10:45:00Z,27.8620,-80.4450,1.0,8.3,98.0,99.0,'11111222,11111222,11144222' 
FIT,ioos:station:wmo:SIPF1:1,2013-12-01T11:00:00Z,27.8620,-80.4450,1.0,7.8,91.0,99.0,'11111222,11111222,11144222' 
FIT,ioos:station:wmo:SIPF1:1,2013-12-01T11:15:00Z,27.8620,-80.4450,1.0,6.0,71.0,99.0,'11111222,11111222,11144222' 
FIT,ioos:station:wmo:SIPF1:1,2013-12-01T11:30:00Z,27.8620,-80.4450,1.0,3.2,79.0,99.0,'11111222,11111222,11144222' 
FIT,ioos:station:wmo:SIPF1:1,2013-12-01T11:45:00Z,27.8620,-80.4450,1.0,3.8,167.0,99.0,'11111222,11111222,11144222' 
FIT,ioos:station:wmo:SIPF1:1,2013-12-01T12:00:00Z,27.8620,-80.4450,1.0,3.3,224.0,99.0,'11111222,11111222,11144222' 
FIT,ioos:station:wmo:SIPF1:1,2013-12-01T12:15:00Z,27.8620,-80.4450,1.0,3.6,264.0,99.0,'11111222,11111222,11144222' 
FIT,ioos:station:wmo:SIPF1:1,2013-12-01T12:30:00Z,27.8620,-80.4450,1.0,4.0,284.0,99.0,'11111222,11111222,11144222' 
FIT,ioos:station:wmo:SIPF1:1,2013-12-01T12:45:00Z,27.8620,-80.4450,1.0,3.8,301.0,99.0,'11111222,11111222,11144222' 
FIT,ioos:station:wmo:SIPF1:1,2013-12-01T13:00:00Z,27.8620,-80.4450,1.0,3.1,307.0,99.0,'11111222,11111222,11144222' 
FIT,ioos:station:wmo:SIPF1:1,2013-12-01T13:15:00Z,27.8620,-80.4450,1.0,3.1,322.0,99.0,'11111222,11111222,11144222' 
FIT,ioos:station:wmo:SIPF1:1,2013-12-01T13:30:00Z,27.8620,-80.4450,1.0,1.8,300.0,99.0,'11111222,11111222,11144222' 
FIT,ioos:station:wmo:SIPF1:1,2013-12-01T13:45:00Z,27.8620,-80.4450,1.0,1.4,335.0,99.0,'11111222,11111222,11144222' 
FIT,ioos:station:wmo:SIPF1:1,2013-12-01T14:00:00Z,27.8620,-80.4450,1.0,4.4,80.0,99.0,'11111222,11111222,11144222' 
FIT,ioos:station:wmo:SIPF1:1,2013-12-01T14:15:00Z,27.8620,-80.4450,1.0,2.7,42.0,99.0,'11111222,11111222,11144222' 
FIT,ioos:station:wmo:SIPF1:1,2013-12-01T14:30:00Z,27.8620,-80.4450,1.0,3.0,342.0,99.0,'11111222,11111222,11144222' 
FIT,ioos:station:wmo:SIPF1:1,2013-12-01T14:45:00Z,27.8620,-80.4450,1.0,3.5,336.0,99.0,'11111222,11111222,11144222' 
FIT,ioos:station:wmo:SIPF1:1,2013-12-01T15:00:00Z,27.8620,-80.4450,1.0,3.6,332.0,99.0,'11111222,11111222,11144222' 
FIT,ioos:station:wmo:SIPF1:1,2013-12-01T15:15:00Z,27.8620,-80.4450,1.0,4.3,330.0,99.0,'11111222,11111222,11144222' 
FIT,ioos:station:wmo:SIPF1:1,2013-12-01T15:30:00Z,27.8620,-80.4450,1.0,4.6,332.0,99.0,'11111222,11111222,11144222' 
FIT,ioos:station:wmo:SIPF1:1,2013-12-01T15:45:00Z,27.8620,-80.4450,1.0,5.3,337.0,99.0,'11111222,11111222,11144222' 
FIT,ioos:station:wmo:SIPF1:1,2013-12-01T16:00:00Z,27.8620,-80.4450,1.0,6.4,337.0,99.0,'11111222,11111222,11144222' 
FIT,ioos:station:wmo:SIPF1:1,2013-12-01T16:15:00Z,27.8620,-80.4450,1.0,5.4,336.0,99.0,'11111222,11111222,11144222' 
FIT,ioos:station:wmo:SIPF1:1,2013-12-01T16:30:00Z,27.8620,-80.4450,1.0,6.3,336.0,99.0,'11111222,11111222,11144222' 
FIT,ioos:station:wmo:SIPF1:1,2013-12-01T16:45:00Z,27.8620,-80.4450,1.0,7.5,338.0,99.0,'11111222,11111222,11144222' 
FIT,ioos:station:wmo:SIPF1:1,2013-12-01T17:00:00Z,27.8620,-80.4450,1.0,8.0,338.0,99.0,'11111222,11111222,11144222' 
FIT,ioos:station:wmo:SIPF1:1,2013-12-01T17:15:00Z,27.8620,-80.4450,1.0,7.6,349.0,99.0,'11111222,11111222,11144222' 
FIT,ioos:station:wmo:SIPF1:1,2013-12-01T17:30:00Z,27.8620,-80.4450,1.0,9.1,355.0,99.0,'11111222,11111222,11144222' 
FIT,ioos:station:wmo:SIPF1:1,2013-12-01T17:45:00Z,27.8620,-80.4450,1.0,8.6,357.0,99.0,'11111222,11111222,11144222' 
FIT,ioos:station:wmo:SIPF1:1,2013-12-01T18:00:00Z,27.8620,-80.4450,1.0,8.1,357.0,99.0,'11111222,11111222,11144222' 
FIT,ioos:station:wmo:SIPF1:1,2013-12-01T18:15:00Z,27.8620,-80.4450,1.0,7.9,3.0,99.0,'11111222,11111222,11144222' 
FIT,ioos:station:wmo:SIPF1:1,2013-12-01T18:30:00Z,27.8620,-80.4450,1.0,8.1,1.0,99.0,'11111222,11111222,11144222' 
FIT,ioos:station:wmo:SIPF1:1,2013-12-01T18:45:00Z,27.8620,-80.4450,1.0,7.8,353.0,99.0,'11111222,11111222,11144222' 
FIT,ioos:station:wmo:SIPF1:1,2013-12-01T19:00:00Z,27.8620,-80.4450,1.0,7.8,346.0,99.0,'11111222,11111222,11144222' 
FIT,ioos:station:wmo:SIPF1:1,2013-12-01T19:15:00Z,27.8620,-80.4450,1.0,7.4,343.0,99.0,'11111222,11111222,11144222' 
FIT,ioos:station:wmo:SIPF1:1,2013-12-01T19:30:00Z,27.8620,-80.4450,1.0,7.2,346.0,99.0,'11111222,11111222,11144222' 
FIT,ioos:station:wmo:SIPF1:1,2013-12-01T19:45:00Z,27.8620,-80.4450,1.0,7.8,352.0,99.0,'11111222,11111222,11144222' 
FIT,ioos:station:wmo:SIPF1:1,2013-12-01T20:00:00Z,27.8620,-80.4450,1.0,7.7,350.0,99.0,'11111222,11111222,11144222' 
FIT,ioos:station:wmo:SIPF1:1,2013-12-01T20:15:00Z,27.8620,-80.4450,1.0,8.3,346.0,99.0,'11111222,11111222,11144222' 
FIT,ioos:station:wmo:SIPF1:1,2013-12-01T20:30:00Z,27.8620,-80.4450,1.0,7.8,359.0,99.0,'11111222,11111222,11144222' 
FIT,ioos:station:wmo:SIPF1:1,2013-12-01T20:45:00Z,27.8620,-80.4450,1.0,7.8,355.0,99.0,'11111222,11111222,11144222' 
FIT,ioos:station:wmo:SIPF1:1,2013-12-01T21:00:00Z,27.8620,-80.4450,1.0,8.2,349.0,99.0,'11111222,11111222,11144222' 
FIT,ioos:station:wmo:SIPF1:1,2013-12-01T21:15:00Z,27.8620,-80.4450,1.0,8.6,348.0,99.0,'11111222,11111222,11144222' 
FIT,ioos:station:wmo:SIPF1:1,2013-12-01T21:30:00Z,27.8620,-80.4450,1.0,8.5,342.0,99.0,'11111222,11111222,11144222' 
FIT,ioos:station:wmo:SIPF1:1,2013-12-01T21:45:00Z,27.8620,-80.4450,1.0,7.9,344.0,99.0,'11111222,11111222,11144222' 
FIT,ioos:station:wmo:SIPF1:1,2013-12-01T22:00:00Z,27.8620,-80.4450,1.0,6.9,341.0,99.0,'11111222,11111222,11144222' 
FIT,ioos:station:wmo:SIPF1:1,2013-12-01T22:15:00Z,27.8620,-80.4450,1.0,6.3,356.0,99.0,'11111222,11111222,11144222' 
FIT,ioos:station:wmo:SIPF1:1,2013-12-01T22:30:00Z,27.8620,-80.4450,1.0,4.6,357.0,99.0,'11111222,11111222,11144222' 
FIT,ioos:station:wmo:SIPF1:1,2013-12-01T22:45:00Z,27.8620,-80.4450,1.0,4.0,4.0,99.0,'11111222,11111222,11144222' 
FIT,ioos:station:wmo:SIPF1:1,2013-12-01T23:00:00Z,27.8620,-80.4450,1.0,4.8,4.0,99.0,'11111222,11111222,11144222' 
FIT,ioos:station:wmo:SIPF1:1,2013-12-01T23:15:00Z,27.8620,-80.4450,1.0,5.0,1.0,99.0,'11111222,11111222,11144222' 
FIT,ioos:station:wmo:SIPF1:1,2013-12-01T23:30:00Z,27.8620,-80.4450,1.0,4.7,16.0,99.0,'11111222,11111222,11144222' 
FIT,ioos:station:wmo:SIPF1:1,2013-12-01T23:45:00Z,27.8620,-80.4450,1.0,4.7,60.0,99.0,'11111222,11111222,11144222' 
FIT,ioos:station:wmo:SIPF1:1,2013-12-02T00:00:00Z,27.8620,-80.4450,1.0,4.4,69.0,99.0,'11111222,11111222,11144222' 
FIT,ioos:station:wmo:SIPF1:1,2013-12-02T00:15:00Z,27.8620,-80.4450,1.0,4.5,52.0,99.0,'11111222,11111222,11144222' 
FIT,ioos:station:wmo:SIPF1:1,2013-12-02T00:30:00Z,27.8620,-80.4450,1.0,7.0,37.0,99.0,'11111222,11111222,11144222' 
FIT,ioos:station:wmo:SIPF1:1,2013-12-02T00:45:00Z,27.8620,-80.4450,1.0,7.4,39.0,99.0,'11111222,11111222,11144222' 
FIT,ioos:station:wmo:SIPF1:1,2013-12-02T01:00:00Z,27.8620,-80.4450,1.0,6.2,48.0,99.0,'11111222,11111222,11144222' 
FIT,ioos:station:wmo:SIPF1:1,2013-12-02T01:15:00Z,27.8620,-80.4450,1.0,5.5,69.0,99.0,'11111222,11111222,11144222' 
FIT,ioos:station:wmo:SIPF1:1,2013-12-02T01:30:00Z,27.8620,-80.4450,1.0,3.1,78.0,99.0,'11111222,11111222,11144222' 
FIT,ioos:station:wmo:SIPF1:1,2013-12-02T01:45:00Z,27.8620,-80.4450,1.0,1.1,121.0,99.0,'11111222,11111222,11144222' 
FIT,ioos:station:wmo:SIPF1:1,2013-12-02T02:00:00Z,27.8620,-80.4450,1.0,2.0,178.0,99.0,'11111222,11111222,11144222' 
FIT,ioos:station:wmo:SIPF1:1,2013-12-02T02:15:00Z,27.8620,-80.4450,1.0,2.0,159.0,99.0,'11111222,11111222,11144222' 
FIT,ioos:station:wmo:SIPF1:1,2013-12-02T02:30:00Z,27.8620,-80.4450,1.0,1.3,259.0,99.0,'11111222,11111222,11144222' 
FIT,ioos:station:wmo:SIPF1:1,2013-12-02T02:45:00Z,27.8620,-80.4450,1.0,2.4,340.0,99.0,'11111222,11111222,11144222' 
FIT,ioos:station:wmo:SIPF1:1,2013-12-02T03:00:00Z,27.8620,-80.4450,1.0,3.3,18.0,99.0,'11111222,11111222,11144222' 
FIT,ioos:station:wmo:SIPF1:1,2013-12-02T03:15:00Z,27.8620,-80.4450,1.0,3.9,4.0,99.0,'11111222,11111222,11144222' 
FIT,ioos:station:wmo:SIPF1:1,2013-12-02T03:30:00Z,27.8620,-80.4450,1.0,3.7,355.0,99.0,'11111222,11111222,11144222' 
FIT,ioos:station:wmo:SIPF1:1,2013-12-02T03:45:00Z,27.8620,-80.4450,1.0,4.1,341.0,99.0,'11111222,11111222,11144222' 
FIT,ioos:station:wmo:SIPF1:1,2013-12-02T04:00:00Z,27.8620,-80.4450,1.0,3.1,312.0,99.0,'11111222,11111222,11144222' 
FIT,ioos:station:wmo:SIPF1:1,2013-12-02T04:15:00Z,27.8620,-80.4450,1.0,2.7,306.0,99.0,'11111222,11111222,11144222' 
FIT,ioos:station:wmo:SIPF1:1,2013-12-02T04:30:00Z,27.8620,-80.4450,1.0,2.2,300.0,99.0,'11111222,11111222,11144222' 
FIT,ioos:station:wmo:SIPF1:1,2013-12-02T04:45:00Z,27.8620,-80.4450,1.0,2.8,317.0,99.0,'11111222,11111222,11144222' 
FIT,ioos:station:wmo:SIPF1:1,2013-12-02T05:00:00Z,27.8620,-80.4450,1.0,2.0,305.0,99.0,'11111222,11111222,11144222' 
FIT,ioos:station:wmo:SIPF1:1,2013-12-02T05:15:00Z,27.8620,-80.4450,1.0,2.1,308.0,99.0,'11111222,11111222,11144222' 
FIT,ioos:station:wmo:SIPF1:1,2013-12-02T05:30:00Z,27.8620,-80.4450,1.0,2.2,317.0,99.0,'11111222,11111222,11144222' 
FIT,ioos:station:wmo:SIPF1:1,2013-12-02T05:45:00Z,27.8620,-80.4450,1.0,2.7,319.0,99.0,'11111222,11111222,11144222' 
FIT,ioos:station:wmo:SIPF1:1,2013-12-02T06:00:00Z,27.8620,-80.4450,1.0,3.3,319.0,99.0,'11111222,11111222,11144222' 
FIT,ioos:station:wmo:SIPF1:1,2013-12-02T06:15:00Z,27.8620,-80.4450,1.0,3.8,326.0,99.0,'11111222,11111222,11144222' 
FIT,ioos:station:wmo:SIPF1:1,2013-12-02T06:30:00Z,27.8620,-80.4450,1.0,4.3,327.0,99.0,'11111222,11111222,11144222' 
FIT,ioos:station:wmo:SIPF1:1,2013-12-02T06:45:00Z,27.8620,-80.4450,1.0,3.6,329.0,99.0,'11111222,11111222,11144222' 
FIT,ioos:station:wmo:SIPF1:1,2013-12-02T07:00:00Z,27.8620,-80.4450,1.0,3.3,335.0,99.0,'11111222,11111222,11144222' 
FIT,ioos:station:wmo:SIPF1:1,2013-12-02T07:15:00Z,27.8620,-80.4450,1.0,4.2,335.0,99.0,'11111222,11111222,11144222' 
FIT,ioos:station:wmo:SIPF1:1,2013-12-02T07:30:00Z,27.8620,-80.4450,1.0,4.6,331.0,99.0,'11111222,11111222,11144222' 
FIT,ioos:station:wmo:SIPF1:1,2013-12-02T07:45:00Z,27.8620,-80.4450,1.0,4.1,325.0,99.0,'11111222,11111222,11144222' 
FIT,ioos:station:wmo:SIPF1:1,2013-12-02T08:00:00Z,27.8620,-80.4450,1.0,4.2,325.0,99.0,'11111222,11111222,11144222' 
FIT,ioos:station:wmo:SIPF1:1,2013-12-02T08:15:00Z,27.8620,-80.4450,1.0,4.3,325.0,99.0,'11111222,11111222,11144222' 
FIT,ioos:station:wmo:SIPF1:1,2013-12-02T08:30:00Z,27.8620,-80.4450,1.0,4.2,325.0,99.0,'11111222,11111222,11144222' 
FIT,ioos:station:wmo:SIPF1:1,2013-12-02T08:45:00Z,27.8620,-80.4450,1.0,4.4,323.0,99.0,'11111222,11111222,11144222' 
FIT,ioos:station:wmo:SIPF1:1,2013-12-02T09:00:00Z,27.8620,-80.4450,1.0,4.4,327.0,99.0,'11111222,11111222,11144222' 
FIT,ioos:station:wmo:SIPF1:1,2013-12-02T09:15:00Z,27.8620,-80.4450,1.0,5.1,327.0,99.0,'11111222,11111222,11144222' 
FIT,ioos:station:wmo:SIPF1:1,2013-12-02T09:30:00Z,27.8620,-80.4450,1.0,5.2,327.0,99.0,'11111222,11111222,11144222' 
FIT,ioos:station:wmo:SIPF1:1,2013-12-02T09:45:00Z,27.8620,-80.4450,1.0,5.9,331.0,99.0,'11111222,11111222,11144222' 
FIT,ioos:station:wmo:SIPF1:1,2013-12-02T10:00:00Z,27.8620,-80.4450,1.0,5.6,325.0,99.0,'11111222,11111222,11144222' 
FIT,ioos:station:wmo:SIPF1:1,2013-12-02T10:15:00Z,27.8620,-80.4450,1.0,5.3,325.0,99.0,'11111222,11111222,11144222' 
FIT,ioos:station:wmo:SIPF1:1,2013-12-02T10:30:00Z,27.8620,-80.4450,1.0,5.1,323.0,99.0,'11111222,11111222,11144222' 
FIT,ioos:station:wmo:SIPF1:1,2013-12-02T10:45:00Z,27.8620,-80.4450,1.0,5.9,333.0,99.0,'11111222,11111222,11144222' 
FIT,ioos:station:wmo:SIPF1:1,2013-12-02T11:00:00Z,27.8620,-80.4450,1.0,5.4,326.0,99.0,'11111222,11111222,11144222' 
FIT,ioos:station:wmo:SIPF1:1,2013-12-02T11:15:00Z,27.8620,-80.4450,1.0,5.8,327.0,99.0,'11111222,11111222,11144222' 
FIT,ioos:station:wmo:SIPF1:1,2013-12-02T11:30:00Z,27.8620,-80.4450,1.0,6.7,333.0,99.0,'11111222,11111222,11144222' 
FIT,ioos:station:wmo:SIPF1:1,2013-12-02T11:45:00Z,27.8620,-80.4450,1.0,6.0,328.0,99.0,'11111222,11111222,11144222' 
FIT,ioos:station:wmo:SIPF1:1,2013-12-02T12:00:00Z,27.8620,-80.4450,1.0,5.8,325.0,99.0,'11111222,11111222,11144222' 
FIT,ioos:station:wmo:SIPF1:1,2013-12-02T12:15:00Z,27.8620,-80.4450,1.0,6.1,328.0,99.0,'11111222,11111222,11144222' 
FIT,ioos:station:wmo:SIPF1:1,2013-12-02T12:30:00Z,27.8620,-80.4450,1.0,5.7,320.0,99.0,'11111222,11111222,11144222' 
FIT,ioos:station:wmo:SIPF1:1,2013-12-02T12:45:00Z,27.8620,-80.4450,1.0,5.5,323.0,99.0,'11111222,11111222,11144222' 
FIT,ioos:station:wmo:SIPF1:1,2013-12-02T13:00:00Z,27.8620,-80.4450,1.0,4.7,321.0,99.0,'11111222,11111222,11144222' 
FIT,ioos:station:wmo:SIPF1:1,2013-12-02T13:15:00Z,27.8620,-80.4450,1.0,4.6,321.0,99.0,'11111222,11111222,11144222' 
FIT,ioos:station:wmo:SIPF1:1,2013-12-02T13:30:00Z,27.8620,-80.4450,1.0,4.9,324.0,99.0,'11111222,11111222,11144222' 
FIT,ioos:station:wmo:SIPF1:1,2013-12-02T13:45:00Z,27.8620,-80.4450,1.0,5.3,320.0,99.0,'11111222,11111222,11144222' 
FIT,ioos:station:wmo:SIPF1:1,2013-12-02T14:00:00Z,27.8620,-80.4450,1.0,6.0,320.0,99.0,'11111222,11111222,11144222' 
FIT,ioos:station:wmo:SIPF1:1,2013-12-02T14:15:00Z,27.8620,-80.4450,1.0,6.3,322.0,99.0,'11111222,11111222,11144222' 
FIT,ioos:station:wmo:SIPF1:1,2013-12-02T14:30:00Z,27.8620,-80.4450,1.0,5.2,324.0,99.0,'11111222,11111222,11144222' 
FIT,ioos:station:wmo:SIPF1:1,2013-12-02T14:45:00Z,27.8620,-80.4450,1.0,3.5,330.0,99.0,'11111222,11111222,11144222' 
FIT,ioos:station:wmo:SIPF1:1,2013-12-02T15:00:00Z,27.8620,-80.4450,1.0,4.3,332.0,99.0,'11111222,11111222,11144222' 
FIT,ioos:station:wmo:SIPF1:1,2013-12-02T15:15:00Z,27.8620,-80.4450,1.0,4.8,334.0,99.0,'11111222,11111222,11144222' 
FIT,ioos:station:wmo:SIPF1:1,2013-12-02T15:30:00Z,27.8620,-80.4450,1.0,5.5,331.0,99.0,'11111222,11111222,11144222' 
FIT,ioos:station:wmo:SIPF1:1,2013-12-02T15:45:00Z,27.8620,-80.4450,1.0,3.9,322.0,99.0,'11111222,11111222,11144222' 
FIT,ioos:station:wmo:SIPF1:1,2013-12-02T16:00:00Z,27.8620,-80.4450,1.0,5.4,331.0,99.0,'11111222,11111222,11144222' 
FIT,ioos:station:wmo:SIPF1:1,2013-12-02T16:15:00Z,27.8620,-80.4450,1.0,6.4,333.0,99.0,'11111222,11111222,11144222' 
FIT,ioos:station:wmo:SIPF1:1,2013-12-02T16:30:00Z,27.8620,-80.4450,1.0,7.0,335.0,99.0,'11111222,11111222,11144222' 
FIT,ioos:station:wmo:SIPF1:1,2013-12-02T16:45:00Z,27.8620,-80.4450,1.0,5.9,339.0,99.0,'11111222,11111222,11144222' 
FIT,ioos:station:wmo:SIPF1:1,2013-12-02T17:00:00Z,27.8620,-80.4450,1.0,5.3,335.0,99.0,'11111222,11111222,11144222' 
FIT,ioos:station:wmo:SIPF1:1,2013-12-02T17:15:00Z,27.8620,-80.4450,1.0,5.2,347.0,99.0,'11111222,11111222,11144222' 
FIT,ioos:station:wmo:SIPF1:1,2013-12-02T17:30:00Z,27.8620,-80.4450,1.0,5.9,355.0,99.0,'11111222,11111222,11144222' 
FIT,ioos:station:wmo:SIPF1:1,2013-12-02T17:45:00Z,27.8620,-80.4450,1.0,6.1,348.0,99.0,'11111222,11111222,11144222' 
FIT,ioos:station:wmo:SIPF1:1,2013-12-02T18:00:00Z,27.8620,-80.4450,1.0,4.7,350.0,99.0,'11111222,11111222,11144222' 
FIT,ioos:station:wmo:SIPF1:1,2013-12-02T18:15:00Z,27.8620,-80.4450,1.0,4.0,360.0,99.0,'11111222,11144222,11144222' 
FIT,ioos:station:wmo:SIPF1:1,2013-12-02T18:30:00Z,27.8620,-80.4450,1.0,2.9,358.0,99.0,'11111222,11111222,11144222' 
FIT,ioos:station:wmo:SIPF1:1,2013-12-02T18:45:00Z,27.8620,-80.4450,1.0,2.0,351.0,99.0,'11111222,11111222,11144222' 
FIT,ioos:station:wmo:SIPF1:1,2013-12-02T19:00:00Z,27.8620,-80.4450,1.0,2.3,3.0,99.0,'11111222,11111222,11144222' 
FIT,ioos:station:wmo:SIPF1:1,2013-12-02T19:15:00Z,27.8620,-80.4450,1.0,2.2,2.0,99.0,'11111222,11111222,11144222' 
FIT,ioos:station:wmo:SIPF1:1,2013-12-02T19:30:00Z,27.8620,-80.4450,1.0,2.1,357.0,99.0,'11111222,11111222,11144222' 
FIT,ioos:station:wmo:SIPF1:1,2013-12-02T19:45:00Z,27.8620,-80.4450,1.0,1.9,359.0,99.0,'11111222,11111222,11144222' 
FIT,ioos:station:wmo:SIPF1:1,2013-12-02T20:00:00Z,27.8620,-80.4450,1.0,1.7,7.0,99.0,'11111222,11111222,11144222' 
FIT,ioos:station:wmo:SIPF1:1,2013-12-02T20:15:00Z,27.8620,-80.4450,1.0,0.9,343.0,99.0,'11111222,11111222,11144222' 
FIT,ioos:station:wmo:SIPF1:1,2013-12-02T20:30:00Z,27.8620,-80.4450,1.0,1.5,322.0,99.0,'11111222,11111222,11144222' 
FIT,ioos:station:wmo:SIPF1:1,2013-12-02T20:45:00Z,27.8620,-80.4450,1.0,2.8,279.0,99.0,'11111222,11111222,11144222' 
FIT,ioos:station:wmo:SIPF1:1,2013-12-02T21:00:00Z,27.8620,-80.4450,1.0,3.1,284.0,99.0,'11111222,11111222,11144222' 
FIT,ioos:station:wmo:SIPF1:1,2013-12-02T21:15:00Z,27.8620,-80.4450,1.0,2.6,282.0,99.0,'11111222,11111222,11144222' 
FIT,ioos:station:wmo:SIPF1:1,2013-12-02T21:30:00Z,27.8620,-80.4450,1.0,2.2,295.0,99.0,'11111222,11111222,11144222' 
FIT,ioos:station:wmo:SIPF1:1,2013-12-02T21:45:00Z,27.8620,-80.4450,1.0,2.4,291.0,99.0,'11111222,11111222,11144222' 
FIT,ioos:station:wmo:SIPF1:1,2013-12-02T22:00:00Z,27.8620,-80.4450,1.0,2.5,286.0,99.0,'11111222,11111222,11144222' 
FIT,ioos:station:wmo:SIPF1:1,2013-12-02T22:15:00Z,27.8620,-80.4450,1.0,2.6,280.0,99.0,'11111222,11111222,11144222' 
FIT,ioos:station:wmo:SIPF1:1,2013-12-02T22:30:00Z,27.8620,-80.4450,1.0,1.9,283.0,99.0,'11111222,11111222,11144222' 
FIT,ioos:station:wmo:SIPF1:1,2013-12-02T22:45:00Z,27.8620,-80.4450,1.0,2.5,276.0,99.0,'11111222,11111222,11144222' 
FIT,ioos:station:wmo:SIPF1:1,2013-12-02T23:00:00Z,27.8620,-80.4450,1.0,2.8,276.0,99.0,'11111222,11111222,11144222' 
FIT,ioos:station:wmo:SIPF1:1,2013-12-02T23:15:00Z,27.8620,-80.4450,1.0,2.7,276.0,99.0,'11111222,11111222,11144222' 
FIT,ioos:station:wmo:SIPF1:1,2013-12-02T23:30:00Z,27.8620,-80.4450,1.0,2.8,277.0,99.0,'11111222,11111222,11144222' 
FIT,ioos:station:wmo:SIPF1:1,2013-12-02T23:45:00Z,27.8620,-80.4450,1.0,2.6,273.0,99.0,'11111222,11111222,11144222' 
FIT,ioos:station:wmo:SIPF1:1,2013-12-03T00:00:00Z,27.8620,-80.4450,1.0,2.3,272.0,99.0,'11111222,11111222,11144222' 
FIT,ioos:station:wmo:SIPF1:1,2013-12-03T00:15:00Z,27.8620,-80.4450,1.0,1.9,273.0,99.0,'11111222,11111222,11144222' 
FIT,ioos:station:wmo:SIPF1:1,2013-12-03T00:30:00Z,27.8620,-80.4450,1.0,2.0,271.0,99.0,'11111222,11111222,11144222' 
FIT,ioos:station:wmo:SIPF1:1,2013-12-03T00:45:00Z,27.8620,-80.4450,1.0,1.8,267.0,99.0,'11111222,11111222,11144222' 
FIT,ioos:station:wmo:SIPF1:1,2013-12-03T01:00:00Z,27.8620,-80.4450,1.0,2.3,265.0,99.0,'11111222,11111222,11144222' 
FIT,ioos:station:wmo:SIPF1:1,2013-12-03T01:15:00Z,27.8620,-80.4450,1.0,2.1,270.0,99.0,'11111222,11111222,11144222' 
FIT,ioos:station:wmo:SIPF1:1,2013-12-03T01:30:00Z,27.8620,-80.4450,1.0,2.0,262.0,99.0,'11111222,11111222,11144222' 
FIT,ioos:station:wmo:SIPF1:1,2013-12-03T01:45:00Z,27.8620,-80.4450,1.0,1.7,268.0,99.0,'11111222,11111222,11144222' 
FIT,ioos:station:wmo:SIPF1:1,2013-12-03T02:00:00Z,27.8620,-80.4450,1.0,1.5,312.0,99.0,'11111222,11111222,11144222' 
FIT,ioos:station:wmo:SIPF1:1,2013-12-03T02:15:00Z,27.8620,-80.4450,1.0,1.4,309.0,99.0,'11111222,11111222,11144222' 
FIT,ioos:station:wmo:SIPF1:1,2013-12-03T02:30:00Z,27.8620,-80.4450,1.0,1.6,333.0,99.0,'11111222,11111222,11144222' 
FIT,ioos:station:wmo:SIPF1:1,2013-12-03T02:45:00Z,27.8620,-80.4450,1.0,1.7,320.0,99.0,'11111222,11111222,11144222' 
FIT,ioos:station:wmo:SIPF1:1,2013-12-03T03:00:00Z,27.8620,-80.4450,1.0,1.9,261.0,99.0,'11111222,11111222,11144222' 
FIT,ioos:station:wmo:SIPF1:1,2013-12-03T03:15:00Z,27.8620,-80.4450,1.0,1.8,253.0,99.0,'11111222,11111222,11144222' 
FIT,ioos:station:wmo:SIPF1:1,2013-12-03T03:30:00Z,27.8620,-80.4450,1.0,1.3,249.0,99.0,'11111222,11111222,11144222' 